Tracking 31027 objects as of 19-Jul-2025
HD Live streaming from Space Station
objects crossing your sky now

STARLINK-5241

Track STARLINK-5241 now!
10-day predictions
STARLINK-5241 is classified as:


NORAD ID: 54204
Int'l Code: 2022-141AZ
Perigee: 546.1 km
Apogee: 547.7 km
Inclination: 53.2 °
Period: 95.4 minutes
Semi major axis: 6917 km
RCS: Unknown
Launch date: October 28, 2022
Source: United States (US)
Launch site: AIR FORCE WESTERN TEST RANGE (AFWTR)
Your satellite tracking list
CZ-4C DEB
Track 1 satellite(s)




NASA's NSSDC Master Catalog

Two Line Element Set (TLE):
1 54204U 22141AZ  25199.33012630  .00000631  00000-0  57729-4 0  9993
2 54204  53.2187 325.7704 0001168  85.9753 274.1373 15.08833695150623
Source of the keplerian elements: AFSPC